Regional Weather Roundup
Issued by NWS Green Bay, WI

Home | Current Version | Previous Version | Graphics & Text | Print | Product List | Glossary Off
Versions: 1 2 3 4 5 6 7 8 9 10 11 12 13 14 15 16 17 18 19 20 21 22 23 24 25 26 27 28 29 30 31 32 33 34 35 36 37 38 39 40 41 42 43 44 45 46 47 48 49 50

807
ASUS43 KGRB 292311
RWRGRB

NORTH-CENTRAL AND NORTHEAST WISCONSIN REGIONAL WEATHER ROUNDUP
NATIONAL WEATHER SERVICE GREEN BAY WI
600 PM CDT FRI JUL 29 2016

WIZ005-009-010>012-018-019-300000-
NORTH CENTRAL WISCONSIN

CITY           SKY/WX    TMP DP  RH WIND       PRES   REMARKS
IRONWOOD       SUNNY     70  55  60 N8        30.04F
MANITOWISH WTR SUNNY     75  51  43 CALM      30.05F
ARBOR VITAE    SUNNY     77  55  45 CALM      30.05F
EAGLE RIVER    MOSUNNY   75  51  42 CALM      30.05S
LAND O LAKES   SUNNY     75  51  43 E3        30.06S
RHINELANDER    PTSUNNY   77  53  43 SE7       30.05S
PHILLIPS       SUNNY     76  54  46 NE3       30.04S
ANTIGO         CLOUDY    70  61  73 CALM      30.06S
TOMAHAWK       PTSUNNY   73  57  57 CALM      30.05S
MERRILL        CLOUDY    72  62  70 SE3       30.05S
$$

WIZ013-073-300000-
NORTHEAST WISCONSIN

CITY           SKY/WX    TMP DP  RH WIND       PRES   REMARKS
IRON MOUNTAIN  PTSUNNY   76  52  43 E3        30.03S
MARINETTE      SUNNY    N/A N/A N/A E12       30.04S
OCONTO         CLOUDY    73  57  58 E7        30.03R
$$

WIZ017-030-035>037-045-300000-
CENTRAL WISCONSIN

CITY           SKY/WX    TMP DP  RH WIND       PRES   REMARKS
MEDFORD        MOSUNNY   73  61  66 E5        30.05S
WAUSAU         CLOUDY    72  61  68 E6        30.03R
MOSINEE        CLOUDY    72  63  73 E3        30.05R
MARSHFIELD     CLOUDY    73  60  63 E8        30.03R
WISC RAPIDS    CLOUDY    72  61  68 E6        30.04R
STEVENS POINT  CLOUDY    70  62  75 SE3       30.03S
WAUPACA        CLOUDY    75  63  67 E7        30.02S
SHAWANO        CLOUDY    75  58  55 E9        30.04R
CLINTONVILLE   CLOUDY    73  59  60 E9        30.03R
WAUTOMA        CLOUDY    71  66  84 NE3       30.02R
$$

WIZ038-039-048-051-300000-
FOX VALLEY

CITY           SKY/WX    TMP DP  RH WIND       PRES   REMARKS
NWS GREEN BAY  CLOUDY    74  62  66 E10       30.02R
APPLETON       PTSUNNY   73  57  56 NE10      30.00S
OSHKOSH        CLOUDY    74  60  61 NE10      30.00S
FOND DU LAC    CLOUDY    75  62  64 E13       30.00R
$$

WIZ022-050-052-300000-
EAST CENTRAL WISCONSIN

CITY           SKY/WX    TMP DP  RH WIND       PRES   REMARKS
EPHRAIM        FAIR      73  55  52 E8G16     30.03S
WASHINGTON ISL NOT AVBL
STURGEON BAY   CLOUDY    73  54  51 E8        30.04R
MANITOWOC      MOSUNNY   73  60  63 NE13      30.01S
SHEBOYGAN      CLOUDY    71  60  68 NE15      30.00S
$$

LMZ563-521-522-541>543-300000-
LAKESHORE

STATION/POSITION TIME  TEMP    WIND        PRES    VSBY  WAVE
                       AIR SEA DIR/SP/G                  HT/PER
                 (UTC) (F)     (DEG/KT/KT) (MB)    (MI)  (FT/S)
SHEBOYGAN LKSHOR 2300   64      10/ 11/ 11 1016.1S
KEWAUNEE LKSHORE 2200   70                 1016.2R
ALGOMA MARINA    2213           70/ 15/ 19   N/A
NORTHPORT PIER   2200   71      70/ 10/ 13 1016.6F
N MID LAKE BUOY  2250   71 70   50/ 12/ 14 1016.1S         1/ 3
S GREEN BAY BUOY 2200   71 71   50/ 12/ 14 1016.2R
SISTER BAY LKSHO 2221   76     120/ 13/ 17   N/A
CHAMBERS ISLAND  2200   73      40/  9/ 13 1016.9S
MENOMINEE LKSHOR 2200   73                 1016.0S
$$




USA.gov is the U.S. government's official web portal to all federal, state and local government web resources and services.